Flag for U.S.A. Weather past 2 weeks in Asheville, North Carolina, U.S.A.

Now
41 °F

Overcast.


Feels Like: 37 °F
Forecast: 38 / 46 °F
Wind: 6 mph from Southeast

Location: Asheville Regional Airport

Current Time: Dec 20, 2014 at 1:14:17 PM

Latest Report: Dec 20, 2014 at 12:54 PM


Visibility: 10 mi

Pressure: 30.18 "Hg

Humidity: 82%

Dew point: 36 °F

Location of AshevilleLocation

Historic Weather in Asheville — Graph

°F

Asheville temperature yesterday

Maximum temperature yesterday: 51 °F (at 2:54 PM)
Minimum temperature yesterday: 35 °F (at 4:54 AM)
Average temperature yesterday: 42 °F

Past Weeks' High & Low Weather Summary

 TemperatureHumidityPressure
High62 °F (Dec 16, 12:54 PM)96% (Dec 5, 6:54 PM)30.41 "Hg (Dec 5, 6:54 PM)
Low23 °F (Dec 15, 7:54 AM)12% (Dec 12, 2:54 PM)29.82 "Hg (Dec 16, 12:54 PM)
Average41 °F65%30.15 "Hg
* Reported Dec 5 12:54 PM — Dec 20 12:01 PM, Asheville, Weather by CustomWeather, © 2014

Note: Actual official high and low records may vary slightly from our data, if they occured in-between our weather recording intervals... More about our weather records

Advertising

Asheville weather history for previous 24 hours

 ConditionsComfort  
Time TempWeatherWind HumidityBarometerVisibility
12:01 PM
Dec 20
41 °FOvercast.6 mph82%30.19 "Hg10 mi
11:04 AM40 °FCloudy.6 mph83%30.21 "Hg10 mi
10:54 AM40 °FMore clouds than sun.9 mph83%30.22 "Hg10 mi
9:54 AM40 °FMore clouds than sun.6 mph83%30.22 "Hg10 mi
8:54 AM38 °FOvercast.No wind90%30.19 "Hg10 mi
7:54 AM38 °FLight rain. Overcast.3 mph90%30.19 "Hg10 mi
6:54 AM38 °FMostly cloudy.6 mph90%30.18 "Hg10 mi
5:54 AM38 °FLight rain. Mostly cloudy.5 mph83%30.15 "Hg10 mi
4:54 AM40 °FLight rain. Overcast.No wind65%30.15 "Hg10 mi
3:54 AM39 °FMostly cloudy.3 mph70%30.15 "Hg10 mi
2:54 AM39 °FOvercast.No wind67%30.14 "Hg10 mi
1:54 AM39 °FOvercast.No wind62%30.14 "Hg10 mi
12:54 AM39 °FMostly cloudy.No wind65%30.15 "Hg10 mi
11:54 PM
Dec 19
40 °FOvercast.No wind51%30.16 "Hg10 mi
10:54 PM40 °FPassing clouds.No wind53%30.16 "Hg10 mi
9:54 PM39 °FClear.7 mph57%30.15 "Hg10 mi
8:54 PM41 °FClear.10 mph55%30.15 "Hg10 mi
7:54 PM42 °FClear.14 mph53%30.16 "Hg10 mi
6:54 PM43 °FClear.13 mph53%30.14 "Hg10 mi
5:54 PM45 °FClear.9 mph51%30.12 "Hg10 mi
4:54 PM47 °FSunny.9 mph50%30.11 "Hg10 mi
3:54 PM49 °FSunny.9 mph46%30.09 "Hg10 mi
2:54 PM51 °FSunny.6 mph42%30.08 "Hg10 mi
1:54 PM50 °FSunny.5 mph44%30.09 "Hg10 mi
Weather by CustomWeather, © 2014

See weather overviewHow to use our weather pages